When you browse on this site, cookies collect data to enhance your experience and personalize the content and advertising you see.
Visit our Privacy Policy to learn more. By continuing to use the site, you agree to this use of cookies and data.
  • en France
  • Liste des pays
  • À 7 jours
  • Température de l'eau
  • Carte satellitaire
  • Carte météo
  • Widgets météo
  • user-avatar
    Se connecter

    Météo par heure à Zarya

    Ce jour, 16 Novembre, Vendredi

    Heure Température Précipitation Vent Pression Humidité
    00:00 -4°C° 0 mm 2 m/s 760 mmHg 33%
    01:00 -5°C° 0 mm 2 m/s 760 mmHg 31%
    02:00 -5°C° 0 mm 2 m/s 761 mmHg 30%
    03:00 -3°C° 0 mm 1 m/s 761 mmHg 31%
    04:00 -3°C° 0 mm 1 m/s 761 mmHg 30%
    05:00 -6°C° 0 mm 2 m/s 761 mmHg 30%
    06:00 -6°C° 0 mm 2 m/s 762 mmHg 29%
    07:00 -6°C° 0 mm 2 m/s 762 mmHg 28%
    08:00 -3°C° 0 mm 1 m/s 762 mmHg 28%
    09:00 -3°C° 0 mm 1 m/s 762 mmHg 26%
    10:00 -2°C° 0 mm 1 m/s 763 mmHg 24%
    11:00 -1°C° 0 mm 1 m/s 763 mmHg 22%
    12:00 0°C° 0 mm 1 m/s 763 mmHg 20%
    13:00 0°C° 0 mm 1 m/s 763 mmHg 20%
    14:00 0°C° 0 mm 1 m/s 763 mmHg 21%
    15:00 -1°C° 0 mm 0 m/s 763 mmHg 24%
    16:00 0°C° 0 mm 1 m/s 763 mmHg 24%
    17:00 -1°C° 0 mm 1 m/s 763 mmHg 25%
    18:00 -1°C° 0 mm 1 m/s 763 mmHg 25%
    19:00 -2°C° 0 mm 1 m/s 763 mmHg 25%
    20:00 -2°C° 0 mm 1 m/s 763 mmHg 25%
    21:00 -2°C° 0 mm 1 m/s 763 mmHg 24%
    22:00 -2°C° 0 mm 1 m/s 762 mmHg 24%
    23:00 -2°C° 0 mm 1 m/s 762 mmHg 24%

    Demain, 17 Novembre, Samedi

    Heure Température Précipitation Vent Pression Humidité
    00:00 -3°C° 0 mm 0 m/s 762 mmHg 23%
    01:00 -2°C° 0 mm 1 m/s 762 mmHg 23%
    02:00 -2°C° 0 mm 1 m/s 762 mmHg 23%
    03:00 -2°C° 0 mm 1 m/s 762 mmHg 23%
    04:00 -2°C° 0 mm 1 m/s 761 mmHg 23%
    05:00 -2°C° 0 mm 1 m/s 761 mmHg 23%
    06:00 -4°C° 0 mm 2 m/s 761 mmHg 23%
    07:00 -4°C° 0 mm 2 m/s 760 mmHg 24%
    08:00 -4°C° 0 mm 2 m/s 760 mmHg 24%
    09:00 -4°C° 0 mm 2 m/s 760 mmHg 24%
    10:00 -3°C° 0 mm 2 m/s 759 mmHg 23%
    11:00 -2°C° 0 mm 3 m/s 759 mmHg 22%
    12:00 0°C° 0 mm 3 m/s 758 mmHg 21%
    13:00 0°C° 0 mm 3 m/s 758 mmHg 22%
    14:00 0°C° 0 mm 3 m/s 757 mmHg 24%
    15:00 -1°C° 0 mm 4 m/s 756 mmHg 25%
    16:00 -2°C° 0 mm 4 m/s 755 mmHg 27%
    17:00 -2°C° 0 mm 4 m/s 755 mmHg 28%
    18:00 -3°C° 0 mm 4 m/s 754 mmHg 30%
    19:00 -3°C° 0 mm 4 m/s 753 mmHg 31%
    20:00 -4°C° 0 mm 5 m/s 753 mmHg 33%
    21:00 -4°C° 0 mm 5 m/s 752 mmHg 34%
    22:00 -4°C° 0 mm 5 m/s 751 mmHg 37%
    23:00 -4°C° 0 mm 5 m/s 750 mmHg 40%

    Après-demain, 18 Novembre, Dimanche

    Heure Température Précipitation Vent Pression Humidité
    00:00 -4°C° 0 mm 5 m/s 750 mmHg 42%
    01:00 -4°C° 0.1 mm 5 m/s 749 mmHg 51%
    02:00 -4°C° 0.1 mm 5 m/s 748 mmHg 60%
    03:00 -4°C° 0.1 mm 5 m/s 748 mmHg 69%
    04:00 -4°C° 0.1 mm 5 m/s 747 mmHg 69%
    05:00 -4°C° 0.1 mm 5 m/s 746 mmHg 70%
    06:00 -4°C° 0.1 mm 5 m/s 745 mmHg 70%
    07:00 -3°C° 0.1 mm 4 m/s 745 mmHg 73%
    08:00 -3°C° 0.1 mm 4 m/s 745 mmHg 75%
    09:00 -3°C° 0.1 mm 4 m/s 744 mmHg 78%
    10:00 -3°C° 0.1 mm 4 m/s 744 mmHg 80%
    11:00 -2°C° 0.1 mm 4 m/s 744 mmHg 81%
    12:00 -1°C° 0.1 mm 3 m/s 744 mmHg 82%
    13:00 -1°C° 0 mm 3 m/s 744 mmHg 83%
    14:00 -1°C° 0 mm 3 m/s 744 mmHg 84%
    15:00 -1°C° 0 mm 3 m/s 744 mmHg 85%
    16:00 -1°C° 0 mm 2 m/s 744 mmHg 86%
    17:00 -1°C° 0 mm 2 m/s 744 mmHg 88%
    18:00 -2°C° 0 mm 2 m/s 744 mmHg 89%
    19:00 -2°C° 0 mm 2 m/s 744 mmHg 90%
    20:00 -2°C° 0 mm 2 m/s 744 mmHg 91%
    21:00 -2°C° 0 mm 2 m/s 744 mmHg 92%
    22:00 0°C° 0 mm 1 m/s 744 mmHg 92%
    23:00 0°C° 0 mm 1 m/s 745 mmHg 92%

    19 Novembre, Lundi

    Heure Température Précipitation Vent Pression Humidité
    00:00 0°C° 0 mm 1 m/s 745 mmHg 93%
    01:00 0°C° 0 mm 1 m/s 745 mmHg 92%
    02:00 0°C° 0 mm 1 m/s 746 mmHg 92%
    03:00 0°C° 0 mm 1 m/s 746 mmHg 92%
    04:00 0°C° 0.1 mm 1 m/s 746 mmHg 92%
    05:00 0°C° 0.1 mm 1 m/s 747 mmHg 93%
    06:00 0°C° 0.1 mm 1 m/s 747 mmHg 94%
    07:00 0°C° 0.1 mm 1 m/s 747 mmHg 93%
    08:00 -2°C° 0.1 mm 2 m/s 748 mmHg 93%
    09:00 -2°C° 0.1 mm 2 m/s 748 mmHg 93%
    10:00 -2°C° 0.1 mm 2 m/s 749 mmHg 89%
    11:00 -2°C° 0.1 mm 2 m/s 749 mmHg 86%
    12:00 -1°C° 0.1 mm 2 m/s 750 mmHg 82%
    13:00 -1°C° 0.1 mm 2 m/s 750 mmHg 80%
    14:00 -1°C° 0.1 mm 2 m/s 750 mmHg 78%
    15:00 -1°C° 0.1 mm 2 m/s 751 mmHg 76%
    16:00 -2°C° 0 mm 2 m/s 751 mmHg 76%
    17:00 -3°C° 0 mm 2 m/s 751 mmHg 75%
    18:00 -4°C° 0 mm 2 m/s 751 mmHg 75%
    19:00 -4°C° 0 mm 2 m/s 751 mmHg 73%
    20:00 -4°C° 0 mm 2 m/s 752 mmHg 70%
    21:00 -4°C° 0 mm 2 m/s 752 mmHg 68%
    22:00 -4°C° 0 mm 2 m/s 752 mmHg 68%
    23:00 -5°C° 0 mm 3 m/s 753 mmHg 67%

    20 Novembre, Mardi

    Heure Température Précipitation Vent Pression Humidité
    00:00 -5°C° 0 mm 3 m/s 753 mmHg 67%
    01:00 -5°C° 0 mm 3 m/s 753 mmHg 67%
    02:00 -5°C° 0 mm 3 m/s 753 mmHg 67%
    03:00 -5°C° 0 mm 3 m/s 753 mmHg 67%
    04:00 -5°C° 0 mm 3 m/s 753 mmHg 67%
    05:00 -5°C° 0 mm 3 m/s 753 mmHg 68%
    06:00 -5°C° 0 mm 3 m/s 753 mmHg 68%
    07:00 -4°C° 0 mm 3 m/s 753 mmHg 67%
    08:00 -4°C° 0 mm 3 m/s 752 mmHg 66%
    09:00 -4°C° 0 mm 3 m/s 752 mmHg 66%
    10:00 -4°C° 0 mm 3 m/s 752 mmHg 66%
    11:00 -2°C° 0 mm 3 m/s 752 mmHg 66%
    12:00 -2°C° 0 mm 3 m/s 752 mmHg 66%
    13:00 -2°C° 0 mm 3 m/s 751 mmHg 66%
    14:00 -2°C° 0 mm 3 m/s 751 mmHg 67%
    15:00 -2°C° 0 mm 3 m/s 750 mmHg 68%
    16:00 -2°C° 0 mm 3 m/s 750 mmHg 71%
    17:00 -4°C° 0 mm 3 m/s 750 mmHg 74%
    18:00 -4°C° 0 mm 3 m/s 750 mmHg 77%
    19:00 -4°C° 0 mm 3 m/s 750 mmHg 79%
    20:00 -4°C° 0 mm 3 m/s 749 mmHg 80%
    21:00 -3°C° 0 mm 2 m/s 749 mmHg 82%
    22:00 -3°C° 0 mm 2 m/s 749 mmHg 83%
    23:00 -3°C° 0 mm 2 m/s 749 mmHg 83%

    21 Novembre, Mercredi

    Heure Température Précipitation Vent Pression Humidité
    00:00 -3°C° 0 mm 2 m/s 749 mmHg 83%
    01:00 -3°C° 0 mm 2 m/s 749 mmHg 84%
    02:00 -4°C° 0 mm 2 m/s 749 mmHg 85%
    03:00 -4°C° 0 mm 2 m/s 749 mmHg 86%
    04:00 -4°C° 0 mm 2 m/s 749 mmHg 86%
    05:00 -4°C° 0 mm 2 m/s 749 mmHg 86%
    06:00 -5°C° 0 mm 2 m/s 748 mmHg 86%
    07:00 -5°C° 0 mm 2 m/s 749 mmHg 85%
    08:00 -5°C° 0 mm 2 m/s 749 mmHg 85%
    09:00 -5°C° 0 mm 2 m/s 749 mmHg 84%
    10:00 -4°C° 0 mm 2 m/s 749 mmHg 81%
    11:00 -3°C° 0 mm 2 m/s 749 mmHg 79%
    12:00 -3°C° 0 mm 2 m/s 749 mmHg 76%
    13:00 -3°C° 0 mm 2 m/s 749 mmHg 77%
    14:00 -4°C° 0 mm 3 m/s 749 mmHg 78%
    15:00 -4°C° 0 mm 3 m/s 749 mmHg 79%
    16:00 -4°C° 0 mm 3 m/s 749 mmHg 80%
    17:00 -5°C° 0 mm 3 m/s 749 mmHg 82%
    18:00 -5°C° 0 mm 3 m/s 749 mmHg 83%
    19:00 -5°C° 0 mm 3 m/s 749 mmHg 83%
    20:00 -5°C° 0 mm 3 m/s 749 mmHg 83%
    21:00 -5°C° 0 mm 3 m/s 749 mmHg 83%
    22:00 -5°C° 0 mm 3 m/s 749 mmHg 84%
    23:00 -6°C° 0 mm 3 m/s 749 mmHg 85%
    Voir plus